Location: Dangé
(46.9359°N, 0.6049°E)
Time: 15:42:22
(UTC+00:00)

Daily predictions for brighter satellites

Satellite Brightness Start Highest point End
(mag) Time Altitude Azimuth Time Altitude Azimuth Time Altitude Azimuth
Cosmos 2360 Rocket 4.0 20:25:48 10° N 20:30:05 21° NE 20:34:20 10° E
IRS-1A Rocket 4.4 20:24:43 10° SSE 20:30:07 61° ENE 20:35:34 10° N
MOS 1 Rocket 4.5 20:27:33 10° SE 20:32:26 36° ENE 20:37:17 10° N
Cosmos 2285 Rocket 4.2 20:27:36 10° SSW 20:33:57 86° WNW 20:40:24 10° NNE
Cosmos 2333 Rocket 4.0 20:30:28 10° N 20:34:50 22° NE 20:39:12 10° E
IRIDIUM 114 4.4 20:30:43 10° N 20:35:58 89° E 20:41:12 10° S
Atlas Centaur 2 4.1 20:30:29 10° SW 20:36:36 23° S 20:42:42 10° SE
SL-16 R/B 3.0 20:32:54 10° NNW 20:38:14 40° NE 20:43:32 10° ESE
Cosmos 1441 Rocket 3.8 20:34:55 10° N 20:38:18 38° ENE 20:41:42 10° SE
ERS-1 Rocket 3.2 20:33:59 10° SSE 20:38:53 56° ENE 20:43:49 10° N
Cosmos 1763 Rocket 3.6 20:34:32 10° NNW 20:39:51 89° WSW 20:45:02 10° SSE
Cosmos 2369 3.9 20:34:15 10° NNW 20:40:00 75° WSW 20:45:42 10° SSE
Lacrosse 5 rocket 4.0 20:39:50 10° WSW 20:40:34 10° WSW 20:41:18 10° SW
Resurs 01 Rocket 3.6 20:37:01 10° SSW 20:40:48 28° W 20:44:36 10° NW
RESURS DK-1 4.1 20:38:18 10° N 20:41:31 22° NE 20:44:44 10° E
Cosmos 2082 Rocket 2.3 20:36:56 10° SSW 20:42:40 88° WNW 20:48:25 10° NNE
Spot 2 Rocket 4.0 20:38:41 10° SE 20:43:31 47° ENE 20:48:22 10° N
Cosmos 1933 Rocket 3.6 20:41:57 10° N 20:46:22 70° E 20:50:47 10° SSE
Cosmos 1470 2.6 20:43:17 10° N 20:46:59 79° E 20:50:40 10° SSE
SPOT 5 2.7 20:43:50 10° S 20:48:08 78° WSW 20:52:31 10° NNW
Cosmos 1300 4.4 20:47:53 10° NNE 20:50:20 17° ENE 20:52:46 10° ESE
Cosmos 1908 3.1 20:50:36 10° N 20:54:11 64° E 20:57:41 10° SSE
Cosmos 1346 Rocket 4.5 20:55:58 10° NNE 20:58:52 20° ENE 21:01:35 11° ESE
Cosmos 1674 3.3 20:56:25 10° SSW 20:59:48 52° WNW 21:03:12 10° N
IRS-1C Rocket 4.3 20:54:57 10° S 21:00:12 75° WSW 21:05:28 10° NNW
ATLAS 2AS CENTAUR R/B 3.7 20:54:14 10° NNW 21:00:43 40° NE 21:06:55 10° ESE
KORONAS-FOTON 4.3 21:02:44 10° SSW 21:06:24 60° W 21:10:07 10° N
Cosmos 468 Rocket 4.1 21:01:44 10° NNW 21:06:59 79° WSW 21:11:54 11° SSE
Ariane Rocket 3.1 21:03:07 11° SSE 21:07:58 73° ENE 21:13:04 10° N
Cosmos 1842 4.0 21:06:23 10° SSW 21:09:55 49° WNW 21:13:30 10° N
Cosmos 1758 4.3 21:06:39 10° N 21:10:12 32° ENE 21:12:54 15° SE
COSMOS 2406 3.8 21:10:15 10° SW 21:15:56 63° WNW 21:21:40 10° NNE
SPOT 3 Rocket 3.5 21:12:14 13° SSE 21:16:55 79° ENE 21:22:06 10° NNW
Meteor 1-13 Rocket 4.3 21:12:49 10° S 21:18:39 86° E 21:24:23 10° NNE
Cosmos 1707 Rocket 4.5 21:16:10 15° SSE 21:19:10 32° E 21:23:08 10° NNE
SL-27 R/B 3.9 21:19:33 14° E 21:19:35 14° E 21:21:05 10° ENE
Cosmos 1980 Rocket 3.8 21:17:49 10° NW 21:22:32 27° WSW 21:27:13 10° SSW
Cosmos 2322 Rocket 2.6 21:17:23 10° NNW 21:22:57 53° ENE 21:27:28 16° SE
S3M 4.1 21:16:55 10° N 21:23:21 84° E 21:29:07 13° S
Cosmos 1655 Rocket 4.2 21:22:56 11° S 21:28:54 60° E 21:35:13 10° NNE
SJ 16-02 2.8 21:28:54 17° SE 21:30:23 20° E 21:33:31 10° NE
Cosmos 2278 3.9 21:26:10 10° NNW 21:31:53 71° WSW 21:36:25 16° SSE
Landsat 5 3.7 21:28:18 10° NNE 21:32:10 49° E 21:35:02 18° S
Landsat 4 3.9 21:32:54 16° S 21:35:29 56° WSW 21:38:53 10° NNW
Cosmos 1741 Rocket 4.3 21:31:50 13° S 21:36:15 48° ESE 21:41:20 10° NNE
Cosmos 540 Rocket 4.5 21:32:07 10° NW 21:36:54 40° WSW 21:41:30 11° S
Tiangong -0.4 21:34:51 10° WSW 21:37:07 18° SSW 21:37:28 18° S
USA 245 4.4 21:34:18 11° SSW 21:37:13 35° W 21:40:56 10° NNW
USA 281 3.9 21:32:45 13° ESE 21:38:16 45° NE 21:44:27 10° NNW
Cosmos 2266 Rocket 4.1 21:32:17 10° S 21:38:36 84° W 21:45:03 10° N
Cosmos 1400 Rocket 2.7 21:35:13 12° S 21:38:52 87° W 21:42:45 10° N
MetOp-A 4.1 21:37:25 19° SSE 21:41:12 70° ENE 21:46:27 10° N
Okean 3 4.2 21:39:26 21° SE 21:41:30 35° E 21:45:17 10° NNE
Cosmos 1733 Rocket 3.3 21:37:12 10° N 21:41:33 58° ENE 21:44:16 22° SSE
Terra 2.6 21:37:48 11° S 21:42:10 45° W 21:46:43 10° NNW
Cosmos 2237 4.5 21:38:02 10° NNW 21:43:44 65° WSW 21:47:58 18° S
Cosmos 968 Rocket 4.0 21:41:01 18° SSE 21:44:20 41° ESE 21:49:10 10° NE
SL-4 R/B 3.1 21:42:45 10° W 21:46:29 44° N 21:50:28 10° ENE
Cosmos 2228 Rocket 3.1 21:44:42 17° S 21:48:08 73° E 21:52:43 10° NNE
Cosmos 2219 Rocket 3.2 21:46:16 10° NNW 21:51:34 39° NE 21:55:47 15° ESE
Cosmos 1315 Rocket 4.1 21:51:04 21° ESE 21:52:20 25° E 21:55:40 10° NE
ATLAS CENTAUR R/B 1.4 21:52:14 27° S 21:53:33 40° ESE 21:56:55 10° NE
SeaSat 1 4.1 21:51:58 10° SSW 21:55:58 26° WSW 22:00:03 10° NW
Meteor 2-10 Rocket 3.8 21:50:58 10° NNW 21:56:36 72° W 22:00:34 19° S
Cosmos 1953 3.4 21:55:53 10° N 21:59:18 30° ENE 22:00:51 22° ESE
H-2A R/B 4.1 21:59:30 15° ESE 22:01:51 24° ENE 22:05:17 10° N
Cosmos 1455 3.4 21:59:30 10° NNE 22:02:31 26° ENE 22:03:41 22° ESE
Cosmos 1242 Rocket 4.3 22:04:20 12° E 22:04:20 12° E 22:05:11 10° ENE
Okean 1-7 3.6 22:04:58 27° SE 22:06:45 41° E 22:10:49 10° NNE
USA 234 3.9 22:00:27 10° NE 22:06:52 60° NNW 22:13:16 10° WSW
BREEZE-M DEB (TANK) 2.0 22:05:56 10° WNW 22:08:02 63° SSW 22:09:09 33° SE
CZ-2C R/B 4.1 22:05:34 10° NNE 22:09:47 44° E 22:11:36 28° SSE
ALOS 2 4.5 22:11:53 13° ESE 22:14:19 20° ENE 22:17:32 10° NNE
Cosmos 2315 Rocket 4.4 22:08:05 10° NNW 22:14:22 62° W 22:19:13 17° SSW
Cosmos 2360 Rocket 2.2 22:09:06 10° NNW 22:14:49 84° WSW 22:18:06 26° SSE
Cosmos 841 Rocket 4.4 22:12:31 10° NW 22:17:26 41° WSW 22:20:45 19° SSW
RESURS DK-1 3.0 22:15:34 10° NW 22:19:27 44° WSW 22:21:10 28° SSW
Cosmos 2333 Rocket 2.2 22:14:04 10° NNW 22:19:51 84° WSW 22:23:08 27° SSE
SL-14 R/B 4.2 22:17:26 15° SW 22:20:15 44° WNW 22:23:54 10° N
SL-16 R/B 3.2 22:17:07 10° NW 22:22:18 37° WSW 22:25:47 19° SSW
Atlas Centaur 2 4.0 22:18:43 10° SW 22:24:41 22° S 22:25:49 21° S
Cosmos 1300 3.9 22:21:56 10° NNW 22:25:09 32° W 22:26:54 20° SW
EXPRESS MD2 3.1 22:24:11 10° W 22:26:26 42° N 22:27:54 16° ENE
BREEZE-M DEB (TANK) 4.2 22:12:45 10° W 22:31:11 77° NNW 22:35:36 10° ENE
Aureole 3 3.7 22:30:50 26° SSW 22:32:50 63° WNW 22:37:22 10° N
Cosmos 1703 Rocket 3.9 22:32:44 34° SSE 22:34:21 53° E 22:38:42 10° NNE
Cosmos 1833 4.1 22:30:08 17° SSW 22:34:32 86° ESE 22:40:11 10° NNE
Cosmos 1346 Rocket 3.9 22:31:17 10° NNW 22:34:49 34° W 22:36:35 22° SW
Cosmos 1862 Rocket 4.3 22:32:47 18° SSW 22:35:48 49° WNW 22:40:07 10° N
DNEPR-1 R/B 4.4 22:29:49 10° NW 22:36:39 77° NE 22:39:56 26° SE
Meteor 1-4 Rocket 2.6 22:41:49 41° SW 22:42:30 52° WNW 22:45:28 10° N
Cosmos 1932 4.4 22:38:31 18° SSW 22:43:19 70° ESE 22:49:34 10° NE
Cosmos 839 Rocket 4.0 22:37:19 10° NW 22:44:18 82° WSW 22:47:42 29° SSE
Cosmos 2322 4.1 22:40:39 10° NNW 22:46:15 57° ENE 22:49:29 25° SE
Cosmos 2237 Rocket 4.0 22:42:32 10° N 22:47:05 24° NE 22:51:37 10° E
BlueWalker 3 4.1 22:50:03 13° E 22:50:03 13° E 22:50:40 10° E
ATLAS 2AS CENTAUR R/B 2.8 22:45:15 10° NW 22:51:56 60° WSW 22:55:16 30° S
Cosmos 2333 4.4 22:46:26 10° NNW 22:52:07 62° WSW 22:54:50 31° S
SL-27 R/B 4.0 22:50:57 17° WSW 22:52:18 24° WNW 22:54:40 10° N
ARIANE 5 R/B 2.9 22:54:58 35° SSW 22:56:33 58° W 23:00:50 10° NNW
SL-24 R/B - RUBIN 2 4.4 22:51:24 10° NW 22:58:06 89° SW 23:01:28 29° SE
PSLV R/B 3.9 22:57:22 10° N 23:01:22 72° WNW 23:02:51 37° SSW
Okean 2 3.9 23:00:22 29° SW 23:02:04 50° WNW 23:06:00 10° N
Cosmos 2322 Rocket 3.6 23:01:59 10° NW 23:06:39 27° WSW 23:09:15 19° SW
Cosmos 1570 Rocket 4.0 23:01:39 10° NNW 23:07:02 83° ENE 23:09:22 35° SSE
Cosmos 1703 4.4 23:06:48 27° E 23:07:07 27° E 23:10:16 10° NNE
SJ 16-02 2.2 23:05:35 19° SW 23:08:23 44° WNW 23:12:34 10° N
Cosmos 1745 Rocket 4.0 23:05:11 31° S 23:08:26 78° E 23:14:49 10° N
Cosmos 1241 Rocket 4.5 23:04:14 15° SW 23:09:25 83° NW 23:15:43 10° NE
COSMOS 2455 3.6 23:08:59 30° SE 23:10:42 36° ESE 23:16:09 10° NE
Cosmos 2297 Rocket 3.4 23:13:10 24° SE 23:14:30 26° ESE 23:19:05 10° NE
Nadezhda 1 Rocket 4.0 23:12:19 10° NNW 23:18:40 77° W 23:21:42 32° S
GP-B 3.9 23:16:05 10° N 23:20:17 44° W 23:22:05 29° SW
Cosmos 1408 2.2 23:22:14 64° ENE 23:22:14 64° ENE 23:24:57 10° NNE
USA 281 3.8 23:19:37 27° SSW 23:22:46 43° WSW 23:29:00 10° NW
COSMOS 2428 2.7 23:19:55 10° NNW 23:25:39 89° ENE 23:28:13 35° SSE
SL-4 R/B 2.9 23:21:49 10° WNW 23:25:46 50° NNE 23:29:57 10° E
Cosmos 1315 Rocket 4.5 23:26:19 18° WSW 23:28:24 27° WNW 23:31:51 10° N
GEOS 3 Rocket 4.1 23:25:41 10° NE 23:30:29 38° ESE 23:31:28 35° SSE
ATLAS CENTAUR R/B 3.4 23:28:30 10° W 23:31:21 22° NW 23:34:17 10° NNE
Cosmos 1782 Rocket 3.8 23:28:52 10° NNW 23:33:07 56° W 23:34:15 41° SW
CZ-3 Stage 3 4.3 23:11:23 10° W 23:33:50 31° SW 23:37:06 27° S
Cosmos 1953 4.0 23:32:00 10° NW 23:34:57 21° W 23:35:58 19° WSW
Cosmos 2219 Rocket 3.0 23:30:18 10° NW 23:35:30 38° WSW 23:37:28 29° SSW
Cosmos 1242 Rocket 3.7 23:35:32 24° W 23:35:42 24° WNW 23:38:03 10° NNW
H-2A R/B 3.4 23:35:29 32° SW 23:36:34 38° W 23:40:36 10° NNW
Cosmos 1455 3.8 23:34:10 10° NW 23:36:48 20° W 23:37:24 19° WSW
Cosmos 2208 Rocket 3.9 23:32:34 10° NNW 23:37:46 74° WSW 23:39:34 41° S
Cosmos 1892 4.3 23:38:13 20° E 23:38:26 20° E 23:41:04 10° NE
Cosmos 371 Rocket 3.5 23:38:59 43° SSE 23:40:14 56° ESE 23:44:57 10° NNE
Cosmos 158 Rocket 4.0 23:34:56 10° NNW 23:40:16 76° WSW 23:42:07 41° S
BREEZE-M DEB (TANK) 4.3 23:38:50 10° WNW 23:42:22 70° N 23:54:09 10° E
Cosmos 836 Rocket 4.4 23:37:27 10° NNW 23:42:41 81° WSW 23:44:34 40° SSE
NOSS 8 (E) 4.4 23:45:42 69° S 23:46:03 80° SE 23:49:15 10° NE
Cosmos 773 Rocket 4.1 23:42:28 10° NNW 23:47:38 71° ENE 23:49:51 34° SE
Cosmos 2151 Rocket 4.3 23:44:21 10° N 23:48:35 45° ENE 23:50:03 33° SE
ALOS 2 3.1 23:49:16 39° SW 23:50:19 48° W 23:54:35 10° NNW
GENESIS II 4.3 23:49:40 44° WSW 23:50:35 64° NW 23:54:14 10° NNE
Cosmos 1503 Rocket 4.2 23:51:55 39° SSE 23:53:40 58° ESE 23:58:52 10° NNE
Cosmos 1300 Rocket 4.3 23:51:16 10° NNW 23:55:16 39° W 23:56:18 33° SW
